Weather in Ushakovo

Russia / Nizhny Novgorod Oblast'     55°07′05″N   44°53′37″E
temp.,
°C
wind,
m/s
gust,
m/s
humid.,
%
clouds,
%
prec.,
mm/h
press.,
hPa
HPBL,
m
13 may, thu
thu1300:00+15se41276100 0.1 1022329
03:00+12se35911 0.1 102286
06:00+14ese36869 0.0 1022165
09:00+19ese6116066 0.0 1021778
12:00+17ese61479100 0.3 1020744
15:00+20se6117194 0.6 10191255
18:00+18sse61280100 2.9 1017557
21:00+15s359367 2.9 1018111
14 may, fri
fri1400:00+14ssw22930 0.0 101923
03:00+13s229476 0.0 102017
06:00+15s2391100 0.0 102091
09:00+19s2379100 0.0 1020393
12:00+22sse34635 0.0 10201055
15:00+24s455797 0.0 10191543
18:00+23se2373100 0.1 101767
21:00+18sse478592 0.2 1017101
15 may, sat
sat1500:00+16sse4886100 0.0 1017141
03:00+16sse41085100 0.0 1016159
06:00+17sse6147338 0.0 1016305
09:00+21s71558100 0.0 1016610
12:00+24s81552100 0.0 1016965
15:00+25s713515 0.0 10161250
18:00+22s5116337 0.0 1015403
21:00+17sse4147687 0.0 1015249
16 may, sun
sun1600:00+16s3127799 0.0 1015228
03:00+15s3576100 0.0 101590
06:00+16s368199 0.0 1016161
09:00+20s4567100 0.0 1016389
12:00+23ssw56595 0.0 1016916
15:00+25s57555 0.0 10151139
18:00+22ssw5106899 0.0 1015340
21:00+18ssw338088 0.0 101644
17 may, mon
mon1700:00+16wsw228932 0.0 101616
03:00+15ene11905 0.0 101711
06:00+17ne23856 0.0 101790
09:00+22e236573 0.0 1017488
12:00+26se23515 0.0 10171060
15:00+27ssw23455 0.0 10171082
18:00+23s611615 0.1 1017360
21:00+19se235478 0.3 101717